sat.trackr.live / text

‹ back to catalog

ONEWEB-0216

NORAD 48801 · 2021-045AL

PAYLOAD ACTIVE UNKNOWN

§ Identity

Operator
Country
UK
Launch date
2021-05-28
Launch site
VOSTO
Launch vehicle
Mass (kg)
RCS (m²)

Purposes: comms

External: N2YO · Heavens-Above · Gunter

§ Orbital elements

Epoch: 2026-09-19T08:22:39.275616Z

Period
109.46 min
Inclination
87.8990°
Eccentricity
0.0002078
Mean motion
13.15547318 rev/d
Perigee alt
1,200.2 km
Apogee alt
1,203.4 km
Semi-major
7,579.9 km
B*
-2.6059e-4
RAAN
240.4242°
Arg perigee
84.4177°
Mean anomaly
275.7191°
Rev number
25,668

§ Raw data

ONEWEB-02161 48801U 21045AL  26262.34906569 -.00000085  00000+0 -26059-3 0  99922 48801  87.8990 240.4242 0002078  84.4177 275.7191 13.15547318256687

JSON: /api/v1/satellites/48801 · /tle

For live sub-satellite position, see the globe view (requires WebGL).

§ Visibility from observer

Set your observer location to see the next 7 days of passes ≥ 10°. The values pass through the URL so the page stays shareable.

No JS? Fill the form by hand. The geolocation button needs JavaScript.